Powrót do katalogu

STARLINK-37279

AktywnyŁącznośćSSO
NORAD 68768·PAYLOAD·🇺🇸 United States

Wystrzelony Apr 19, 2026 z Vandenberg Space Force Base

Loading…

Następne Przeloty (najbliższe 24 godziny)

TLE

ŚwieżeSource: CelesTrak SupGP

Epoka: Sep 15, 2026, 03:06 UTC

1 68768C 26086C   26258.12965278 -.00036220  00000+0 -11244-2 0  2586
2 68768  97.2840 293.5844 0001147  97.0027  83.2596 15.33455535    13

Śledź STARLINK-37279 w czasie rzeczywistym z AllMySat

Download on the App Store